Home   Weather   Kitzbühel   Past weeks
Flag for Austria

Past Weather in Kitzbühel, Tyrol, Austria — Yesterday and Last 2 Weeks

Now
43 °F

Quite cool.


Feels Like: 43 °F
Forecast: 35 / 28 °F
Wind: 2 mph from West

Location: Kufstein

Current Time: Nov 12, 2019 at 1:54:21 pm

Latest Report: Nov 12, 2019 at 1:00 pm


Visibility: N/A

Pressure: 29.80 "Hg (27.18 "Hg at 750m altitude)

Humidity: 80%

Dew Point: 37 °F

Location of KitzbühelLocation

Past Weather in Kitzbühel — Graph

°F

Kitzbühel Temperature Yesterday

Maximum temperature yesterday: 44 °F (at 3:00 pm)
Minimum temperature yesterday: 29 °F (at 7:00 am)
Average temperature yesterday: 35 °F

High & Low Weather Summary for the Past Weeks

 TemperatureHumidityPressure
High61 °F (Nov 2, 3:00 pm)97% (Nov 5, 7:00 am)30.31 "Hg (Nov 5, 7:00 am)
Low29 °F (Nov 11, 7:00 am)57% (Nov 2, 3:00 pm)29.15 "Hg (Nov 3, 3:00 pm)
Average43 °F85%29.81 "Hg
* Reported Oct 28 12:00 pm — Nov 12 12:00 pm, Kitzbühel. Weather by CustomWeather, © 2019

Note: Actual official high and low records may vary slightly from our data, if they occured in-between our weather recording intervals... More about our weather records

Advertising

Kitzbühel Weather History for the Previous 24 Hours

Scroll right to see more
 ConditionsComfort  
Time TempWeatherWind HumidityBarometerVisibility
12:00 pm
Tue, Nov 12
41 °FQuite cool.2 mph83%29.81 "HgN/A
11:00 am39 °FChilly.1 mph88%29.87 "HgN/A
10:00 am38 °FChilly.1 mph91%29.89 "HgN/A
9:00 am37 °FFog.1 mph92%29.90 "HgN/A
8:00 am36 °FFog.1 mph92%29.91 "HgN/A
7:00 am37 °FChilly.1 mph93%29.89 "HgN/A
6:00 am38 °FFog.1 mph94%29.88 "HgN/A
5:00 am38 °FFog.No wind93%29.88 "HgN/A
4:00 am38 °FChilly.1 mph89%29.87 "HgN/A
3:00 am39 °FSprinkles. Overcast.2 mph84%29.86 "HgN/A
2:00 am41 °FQuite cool.3 mph78%29.85 "HgN/A
1:00 am40 °FChilly.3 mph77%29.86 "HgN/A
12:00 am38 °FChilly.3 mph82%29.84 "HgN/A
11:00 pm
Mon, Nov 11
37 °FChilly.5 mph82%29.83 "HgN/A
10:00 pm36 °FChilly.3 mph85%29.83 "HgN/A
9:00 pm36 °FChilly.3 mph86%29.83 "HgN/A
8:00 pm36 °FChilly.2 mph86%29.81 "HgN/A
7:00 pm36 °FChilly.2 mph84%29.81 "HgN/A
6:00 pm37 °FChilly.2 mph83%29.80 "HgN/A
5:00 pm38 °FChilly.3 mph79%29.79 "HgN/A
4:00 pm43 °FQuite cool.1 mph62%29.76 "HgN/A
3:00 pm44 °FQuite cool.1 mph61%29.77 "HgN/A
2:00 pm42 °FQuite cool.1 mph61%29.82 "HgN/A
1:00 pm41 °FQuite cool.2 mph64%29.85 "HgN/A
Weather by CustomWeather, © 2019

See weather overview